Regional Weather Roundup
Issued by NWS Kansas City/Pleasant Hill, MO

Home | Current Version | Previous Version | Graphics & Text | Print | Product List | Glossary Off
Versions: 1 2 3 4 5 6 7 8 9 10 11 12 13 14 15 16 17 18 19 20 21 22 23 24 25 26 27 28 29 30 31 32 33 34 35 36 37 38 39 40 41 42 43 44 45 46 47 48 49 50

000
ASUS43 KEAX 060411
RWREAX

WEATHER ROUNDUP FOR EASTERN KANSAS AND NORTHWEST MISSOURI
NATIONAL WEATHER SERVICE KANSAS CITY/PLEASANT HILL MO
1100 PM CDT SUN JUL 05 2015

KSZ040-057-103>105-MOZ028-029-037-043-060500-
...KANSAS CITY METROPOLITAN AREA...

CITY           SKY/WX    TMP DP  RH WIND       PRES   REMARKS
K.C. INTL      PTCLDY    81  72  74 S14       29.89S
K.C. DOWNTOWN  CLEAR     82  70  66 S13       29.88F
LEES SUMMIT    CLEAR     78  67  68 S12G20    29.91F
OLATHE - IXD   CLEAR     79  69  71 S16       29.90F
OLATHE - OJC   CLEAR     77  69  76 S13       29.90F
LAWRENCE       CLEAR     82  74  76 S13       29.89R

$$

MOZ001>008-011>017-020>025-030>033-038>040-044>046-053-054-060500-
...NORTHERN AND CENTRAL MISSOURI...

CITY           SKY/WX    TMP DP  RH WIND       PRES   REMARKS
ST. JOSEPH     CLEAR     83  74  74 S12       29.86S
MOSBY          CLEAR     81  70  69 S9        29.89F
HARRISONVILLE  CLEAR     75  68  78 SE8       29.95F
WARRENSBURG    CLEAR     73  64  73 SE9       29.93S
WHITEMAN AFB   NOT AVBL
CLINTON        CLEAR     75  68  78 S8        29.96F
SEDALIA        CLEAR     75  65  70 S12       29.96F
WARSAW         FAIR      72  66  83 SE7       29.97F
CHILLICOTHE      N/A     80  73  79 S6        29.91F
KIRKSVILLE     CLEAR     75  68  78 SE12      29.94F

$$

MOZ041-047>049-056>058-063>065-088>090-097-060500-
...EASTERN AND SOUTHERN MISSOURI...

CITY           SKY/WX    TMP DP  RH WIND       PRES   REMARKS
ST. LOUIS INTL MOCLDY    80  67  64 S12       30.02S
SPIRIT OF STL  CLEAR     77  70  79 S5        30.00S HAZE
COLUMBIA       CLEAR     76  71  85 S8        29.98R
JEFFERSON CITY CLEAR     77  71  82 E6        29.97R
MEXICO         CLEAR    N/A N/A N/A SE6       29.98R
ROLLA          CLEAR     75  71  87 S12       30.00S
LEBANON        CLEAR     73  68  83 S8        30.03F
OSAGE BEACH    CLEAR     75  64  69 S7        29.99F
SPRINGFIELD    CLEAR     72  67  84 S12       30.02S
BRANSON        LGT RAIN  68  68 100 CALM      30.06S
JOPLIN         CLOUDY    76  67  73 S13       29.96F
WEST PLAINS    MOCLDY    75  72  90 S9        30.07F
MALDEN         CLEAR     77  73  88 S6        30.04F

$$

IAZ060-094-KSZ022-034>040-054-083-096-NEZ052-066-093-060500-
...KANSAS...SOUTHEAST NEBRASKA AND IOWA...

CITY           SKY/WX    TMP DP  RH WIND       PRES   REMARKS
TOPEKA         CLEAR     84  73  69 S15G22    29.86S HX  90
MANHATTAN      CLEAR     86  71  60 S14G26    29.83R HX  91
EMPORIA        CLEAR     82  72  71 S17G26    29.89R
CHANUTE        MOCLDY    79  75  87 SE9       29.93S
WICHITA        MOCLDY    85  70  60 S22G29    29.88R
OMAHA          TSTM      83  75  77 SW8       29.83R HX  90
LINCOLN        CLOUDY    84  71  65 SE17      29.80R
FALLS CITY     MOCLDY    82  75  79 SE14      29.83R
LAMONI         CLEAR     79  72  79 S9        29.89S
DES MOINES     PTCLDY    78  68  71 S13       29.88R

$$



USA.gov is the U.S. government's official web portal to all federal, state and local government web resources and services.